This is the latest recevied weather packets stored in our database for station/object KD0JCP-10. If no packets are shown the sender has not sent any weather packets the latest 10 day(s).
| Time | Temp. | Humidity | Pressure | Rain* | Wind** | Luminosity | Snow |
|---|---|---|---|---|---|---|---|
| 1777574188 | 13.89° C | 43% | 1020.5 hPa | 0 mm | - | - | - |
| 1777573887 | 13.89° C | 42% | 1020.6 hPa | 0 mm | - | - | - |
| 1777573587 | 14.44° C | 42% | 1020.7 hPa | 0 mm | - | - | - |
| 1777573287 | 14.44° C | 44% | 1020.6 hPa | 0 mm | - | - | - |
| 1777572988 | 14.44° C | 44% | 1020.7 hPa | 0 mm | - | - | - |
| 1777572688 | 13.89° C | 44% | 1020.7 hPa | 0 mm | - | - | - |
| 1777572387 | 13.89° C | 43% | 1020.9 hPa | 0 mm | - | - | - |
| 1777572088 | 13.89° C | 44% | 1020.9 hPa | 0 mm | - | - | - |
| 1777571788 | 13.89° C | 44% | 1020.9 hPa | 0 mm | - | - | - |
| 1777571488 | 13.89° C | 44% | 1021 hPa | 0 mm | - | - | - |
| 1777571188 | 13.89° C | 45% | 1021.1 hPa | 0 mm | - | - | - |
| 1777570888 | 13.89° C | 44% | 1021.1 hPa | 0 mm | - | - | - |
| 1777570588 | 13.89° C | 46% | 1021 hPa | 0 mm | - | - | - |
| 1777570288 | 13.89° C | 43% | 1021.1 hPa | 0 mm | - | - | - |
| 1777569988 | 13.89° C | 45% | 1021.2 hPa | 0 mm | - | - | - |
| 1777569688 | 13.89° C | 45% | 1021.2 hPa | 0 mm | - | - | - |
| 1777569388 | 13.89° C | 42% | 1021.3 hPa | 0 mm | - | - | - |
| 1777569088 | 13.89° C | 45% | 1021.3 hPa | 0 mm | - | - | - |
| 1777568788 | 13.89° C | 44% | 1021.2 hPa | 0 mm | - | - | - |
| 1777568488 | 13.89° C | 48% | 1021.3 hPa | 0 mm | - | - | - |
| 1777568188 | 13.89° C | 46% | 1021.3 hPa | 0 mm | - | - | - |
| 1777567888 | 13.33° C | 46% | 1021.3 hPa | 0 mm | - | - | - |
| 1777567588 | 13.33° C | 47% | 1021.3 hPa | 0 mm | - | - | - |
| 1777567288 | 13.33° C | 50% | 1021.3 hPa | 0 mm | - | - | - |
| 1777566988 | 13.33° C | 49% | 1021.4 hPa | 0 mm | - | - | - |
* Rain latest hour (hover to see other rain measurements)
** Current wind speed in m/s (hover to see current wind gust speed)